BEIDOU-3 M4 (C28)

Last updated on Jan. 24, 2021, 6:19 a.m. UTC

1 43108U 18003B   21023.41446459 -.00000077  00000-0  00000-0 0  9998
2 43108  55.3778  10.0697 0004516 254.8557 289.8504  1.86232501 20655
UTC
Height (km)
Latitude
Longitude
Inclination
Orbital Period
UTC large
Height (km)
Speed (km/s)
/
Latitude / Longitude
Inclination (degrees)
Orbital Period (minutes)
Azimuth
Elevation
Range (km)
Doppler Factor
iOS Compass Heading
iOS Angle

Next 30 passes for location: Hong Kong

Rise time Rise Azimuth (degrees) Set time Set Azimuth (degrees) Duration Max altitude (degrees)

No matching passes for this satellites